Location: Oregon Trail
(41.1872°N, 102.0741°W)
Time: 07:30:55
(UTC+00:00)

Okean O Rocket - Pass Details

Date: 19 November 2019
Orbit: 622 x 645 km, 98.2° (Epoch: 15 December)

Event Time Altitude Azimuth Distance (km) Brightness Sun altitude
Rises 12:54:27 0° 5° (N) 2,912 4.9 -8.9°
Reaches altitude 10° 12:56:44 10° 359° (N) 2,001 4.0 -8.5°
Maximum altitude 13:00:49 41° 289° (WNW) 902 1.9 -7.8°
Drops below altitude 10° 13:04:53 10° 219° (SW) 1,991 4.0 -7.1°
Sets 13:07:09 0° 212° (SSW) 2,895 4.9 -6.7°
